CW6102 Weather Reports


time (UTC)temp
C
wind
direction
speed
KPH
gust
KPH
rain 1hr
cm
rain 24hr
cm
rain mn
cm
humidity
%
barometer
mb
20260506051213 7 255 0.0 0.0 0.00 0.00 0.00 84 1024.7
20260506051205 12 161 3.2 8.0 0.00 1.24 1.22 91 1004.0
20260506050705 12 136 1.6 8.0 0.00 1.24 1.22 90 1004.0
20260506050213 7 255 0.0 0.0 0.00 0.00 0.00 84 1024.7
20260506050210 12 165 1.6 9.7 0.00 1.24 1.22 90 1003.9
20260506044704 12 181 1.6 8.0 0.00 1.24 1.22 91 1003.7
20260506043705 12 176 3.2 11.3 0.00 1.24 1.22 92 1003.8
20260506043213 7 255 0.0 0.0 0.00 0.00 0.00 84 1024.7
20260506043205 12 188 4.8 11.3 0.00 1.24 1.22 92 1003.9
20260506042704 11 168 3.2 14.5 0.00 1.24 1.22 92 1003.9
20260506042213 7 255 0.0 0.0 0.00 0.00 0.00 84 1024.7
20260506042204 11 156 3.2 8.0 0.00 1.24 1.22 92 1003.8
20260506041704 11 178 3.2 14.5 0.00 1.24 1.22 92 1003.8
20260506035705 11 158 1.6 9.7 0.00 1.24 1.22 92 1003.8
20260506035213 7 255 0.0 0.0 0.00 0.00 0.00 84 1024.7
20260506035204 11 174 0.0 9.7 0.00 1.24 1.22 92 1003.7
20260506033705 11 153 3.2 8.0 0.00 1.24 1.22 92 1003.6
20260506033213 7 255 0.0 0.0 0.00 0.00 0.00 84 1024.7
20260506033205 11 153 1.6 12.9 0.00 1.24 1.22 92 1003.8
20260506032705 11 167 4.8 11.3 0.00 1.24 1.22 92 1003.8
20260506032213 7 255 0.0 0.0 0.00 0.00 0.00 84 1024.7
20260506032205 11 133 3.2 9.7 0.00 1.24 1.22 92 1003.8
20260506031704 11 149 1.6 4.8 0.00 1.24 1.22 92 1003.8
20260506031213 7 255 0.0 0.0 0.00 0.00 0.00 84 1024.7
20260506031205 11 149 3.2 8.0 0.00 1.24 1.22 92 1003.8
20260506030704 11 163 4.8 11.3 0.00 1.24 1.22 92 1003.8
20260506030213 7 255 0.0 0.0 0.00 0.00 0.00 84 1024.7
20260506030204 11 186 4.8 12.9 0.00 1.24 1.22 92 1003.9
20260506025213 7 255 0.0 0.0 0.00 0.00 0.00 84 1024.7
20260506025205 11 192 3.2 14.5 0.00 1.24 1.22 92 1003.8
20260506024704 11 174 3.2 9.7 0.00 1.24 1.22 92 1003.8
20260506024213 7 255 0.0 0.0 0.00 0.00 0.00 84 1024.7
20260506024205 11 176 3.2 11.3 0.00 1.24 1.22 93 1003.9
20260506023704 11 171 3.2 11.3 0.00 1.24 1.22 93 1003.9
20260506023213 7 255 0.0 0.0 0.00 0.00 0.00 84 1024.7
20260506023204 11 175 4.8 11.3 0.00 1.24 1.22 93 1004.0
20260506022704 11 181 1.6 8.0 0.00 1.24 1.22 93 1003.9
20260506022213 7 255 0.0 0.0 0.00 0.00 0.00 84 1024.7
20260506022204 11 186 1.6 8.0 0.00 1.24 1.22 93 1004.0
20260506021213 7 255 0.0 0.0 0.00 0.00 0.00 84 1024.7
20260506021204 11 182 0.0 8.0 0.00 1.24 1.22 93 1004.1
20260506020213 7 255 0.0 0.0 0.00 0.00 0.00 84 1024.7
20260506020204 11 146 4.8 9.7 0.00 1.24 1.22 93 1004.1
20260506015705 11 232 3.2 8.0 0.00 1.24 1.22 93 1004.1
20260506015213 7 255 0.0 0.0 0.00 0.00 0.00 84 1024.7
20260506015204 11 191 1.6 8.0 0.00 1.24 1.22 93 1004.0
20260506014704 11 172 1.6 4.8 0.00 1.24 1.22 93 1004.1
20260506014213 7 255 0.0 0.0 0.00 0.00 0.00 84 1024.7
20260506014204 11 184 0.0 4.8 0.00 1.24 1.22 93 1004.1
20260506013704 11 173 3.2 11.3 0.00 1.24 1.22 93 1004.1
20260506013213 7 255 0.0 0.0 0.00 0.00 0.00 84 1024.7
20260506013204 11 175 0.0 3.2 0.00 1.24 1.22 93 1004.2
20260506012704 11 208 0.0 3.2 0.00 1.24 1.22 93 1004.2
20260506012213 7 255 0.0 0.0 0.00 0.00 0.00 84 1024.7
20260506012205 11 160 1.6 3.2 0.00 1.24 1.22 93 1004.4
20260506011704 11 137 0.0 3.2 0.00 1.24 1.22 93 1004.4
20260506011213 7 255 0.0 0.0 0.00 0.00 0.00 84 1024.7
20260506011204 11 135 0.0 3.2 0.00 1.24 1.22 93 1004.4
20260506010704 11 137 0.0 3.2 0.00 1.24 1.22 93 1004.5
20260506010213 7 255 0.0 0.0 0.00 0.00 0.00 84 1024.7
20260506010204 11 144 0.0 8.0 0.00 1.24 1.22 93 1004.6
20260506005704 11 133 1.6 4.8 0.00 1.24 1.22 92 1004.6
20260506005213 7 255 0.0 0.0 0.00 0.00 0.00 84 1024.7
20260506005204 11 157 1.6 3.2 0.00 1.24 1.22 92 1004.6
20260506004704 11 138 3.2 8.0 0.03 1.24 1.22 93 1004.5
20260506004213 7 255 0.0 0.0 0.00 0.00 0.00 84 1024.7
20260506004204 11 145 0.0 1.6 0.05 1.24 1.22 93 1004.2
20260506003213 7 255 0.0 0.0 0.00 0.00 0.00 84 1024.7
20260506003205 11 146 0.0 1.6 0.13 1.24 1.22 93 1004.1
20260506002704 11 156 0.0 1.6 0.15 1.24 1.22 92 1004.2
20260506002213 7 255 0.0 0.0 0.00 0.00 0.00 84 1024.7
20260506002204 11 121 1.6 4.8 0.20 1.24 1.22 92 1004.0
20260506001704 11 156 0.0 3.2 0.23 1.24 1.22 92 1003.9
20260506001213 7 255 0.0 0.0 0.00 0.00 0.00 84 1024.7
20260506001204 11 118 1.6 8.0 0.30 1.24 1.22 92 1003.8
20260506000704 11 139 3.2 29.0 0.33 1.24 1.22 92 1003.7
20260506000213 7 255 0.0 0.0 0.00 0.00 0.00 84 1024.7
20260506000205 12 115 0.0 4.8 0.38 1.24 1.22 92 1003.8
20260505235705 12 105 0.0 3.2 0.41 1.24 1.22 92 1003.9
20260505235213 7 255 0.0 0.0 0.00 0.00 0.00 84 1024.7
20260505235205 11 98 0.0 3.2 0.43 1.24 1.22 92 1004.0
20260505234704 12 51 0.0 3.2 0.43 1.22 1.19 92 1004.3
20260505234213 7 255 0.0 0.0 0.00 0.00 0.00 84 1024.7
20260505234204 12 358 1.6 4.8 0.46 1.19 1.17 92 1004.4
20260505233704 12 184 1.6 4.8 0.48 1.17 1.14 92 1004.7
20260505232704 12 173 0.0 0.0 0.71 1.09 1.07 92 1005.1
20260505231213 7 255 0.0 0.0 0.00 0.00 0.00 84 1024.7
20260505231205 12 173 0.0 0.0 0.89 0.94 0.91 91 1005.6
20260505230704 12 174 1.6 3.2 0.86 0.89 0.89 91 1005.7
20260505230213 7 255 0.0 0.0 0.00 0.00 0.00 84 1024.7
20260505230204 12 173 1.6 4.8 0.84 0.86 0.84 91 1005.9
20260505225705 12 165 3.2 9.7 0.81 0.84 0.81 91 1006.0
20260505224704 12 200 0.0 3.2 0.76 0.79 0.76 90 1005.9
20260505224213 7 255 0.0 0.0 0.00 0.00 0.00 84 1024.7
20260505224204 12 248 1.6 3.2 0.71 0.74 0.71 89 1006.0
20260505223704 12 248 4.8 8.0 0.66 0.69 0.66 89 1005.9
20260505223213 7 255 0.0 0.0 0.00 0.00 0.00 84 1024.7
20260505223204 12 232 4.8 9.7 0.51 0.53 0.51 88 1005.9
20260505222704 13 237 4.8 9.7 0.36 0.38 0.36 87 1005.9
20260505222212 7 255 0.0 0.0 0.00 0.00 0.00 84 1024.7
20260505222204 13 307 4.8 12.9 0.20 0.23 0.20 86 1006.0
20260505221704 13 235 9.7 24.1 0.15 0.15 0.15 86 1006.0
20260505221212 7 255 0.0 0.0 0.00 0.00 0.00 84 1024.7
20260505221204 14 225 6.4 20.9 0.03 0.05 0.03 86 1006.0
20260505220704 14 263 4.8 22.5 0.03 0.05 0.03 86 1005.9
20260505215704 15 111 0.0 3.2 0.00 0.00 0.00 85 1005.3
20260505215212 7 255 0.0 0.0 0.00 0.00 0.00 84 1024.7
20260505215204 15 111 1.6 4.8 0.00 0.00 0.00 84 1005.4
20260505214704 15 130 4.8 8.0 0.00 0.00 0.00 84 1005.2
20260505214212 7 255 0.0 0.0 0.00 0.00 0.00 84 1024.7
20260505214204 15 99 3.2 8.0 0.00 0.00 0.00 83 1005.1
20260505213705 15 5 1.6 4.8 0.00 0.00 0.00 82 1004.9
20260505213213 7 255 0.0 0.0 0.00 0.00 0.00 84 1024.7
20260505213205 15 87 8.0 19.3 0.00 0.00 0.00 82 1004.6
20260505212704 15 83 4.8 12.9 0.00 0.00 0.00 81 1004.6
20260505212212 7 255 0.0 0.0 0.00 0.00 0.00 84 1024.7
20260505212204 15 73 4.8 9.7 0.00 0.00 0.00 81 1004.6
20260505211213 7 255 0.0 0.0 0.00 0.00 0.00 84 1024.7
20260505211204 15 61 4.8 11.3 0.00 0.00 0.00 81 1004.8
20260505210704 15 336 8.0 20.9 0.00 0.00 0.00 81 1005.0
20260505210213 7 255 0.0 0.0 0.00 0.00 0.00 84 1024.7
20260505210204 15 95 6.4 24.1 0.00 0.00 0.00 81 1004.9
20260505205704 15 65 8.0 22.5 0.00 0.00 0.00 81 1005.0
20260505205212 7 255 0.0 0.0 0.00 0.00 0.00 84 1024.7
20260505205204 15 42 8.0 12.9 0.00 0.00 0.00 81 1004.9
20260505204704 15 48 6.4 27.4 0.00 0.00 0.00 81 1004.9
20260505204212 7 255 0.0 0.0 0.00 0.00 0.00 84 1024.7
20260505204204 15 66 4.8 19.3 0.00 0.00 0.00 81 1005.0
20260505203704 15 71 3.2 9.7 0.00 0.00 0.00 81 1005.2
20260505202212 7 255 0.0 0.0 0.00 0.00 0.00 84 1024.7
20260505202204 15 86 3.2 8.0 0.00 0.00 0.00 80 1005.1
20260505201705 15 354 4.8 16.1 0.00 0.00 0.00 80 1005.1
20260505201212 7 255 0.0 0.0 0.00 0.00 0.00 84 1024.7
20260505201204 15 107 8.0 11.3 0.00 0.00 0.00 80 1005.1
20260505200212 7 255 0.0 0.0 0.00 0.00 0.00 84 1024.7
20260505200204 16 89 4.8 12.9 0.00 0.00 0.00 80 1005.1
20260505195704 16 80 8.0 19.3 0.00 0.00 0.00 80 1005.3
20260505195212 7 255 0.0 0.0 0.00 0.00 0.00 84 1024.7
20260505195204 16 94 3.2 14.5 0.00 0.00 0.00 80 1005.2
20260505194705 16 18 4.8 19.3 0.00 0.00 0.00 80 1005.2
20260505194212 7 255 0.0 0.0 0.00 0.00 0.00 84 1024.7
20260505194204 16 41 4.8 25.7 0.00 0.00 0.00 80 1005.2
20260505193704 16 94 3.2 8.0 0.00 0.00 0.00 80 1005.2
20260505192704 16 21 1.6 8.0 0.00 0.00 0.00 79 1005.2
20260505192212 7 255 0.0 0.0 0.00 0.00 0.00 84 1024.7
20260505192204 16 5 1.6 4.8 0.00 0.00 0.00 79 1005.2
20260505191704 16 69 1.6 9.7 0.00 0.00 0.00 78 1005.2
20260505191212 7 255 0.0 0.0 0.00 0.00 0.00 84 1024.7
20260505191203 16 354 4.8 9.7 0.00 0.00 0.00 78 1005.2
20260505190705 16 285 3.2 11.3 0.00 0.00 0.00 78 1005.2
20260505185704 16 12 4.8 11.3 0.00 0.00 0.00 78 1005.2
20260505185212 7 255 0.0 0.0 0.00 0.00 0.00 84 1024.7
20260505185203 16 31 3.2 8.0 0.00 0.00 0.00 78 1005.2
20260505184705 16 12 1.6 9.7 0.00 0.00 0.00 77 1005.1
20260505183212 7 255 0.0 0.0 0.00 0.00 0.00 84 1024.7
20260505183204 16 349 3.2 9.7 0.00 0.00 0.00 77 1005.2
20260505182704 16 12 3.2 9.7 0.00 0.00 0.00 77 1005.2
20260505182212 7 255 0.0 0.0 0.00 0.00 0.00 84 1024.7
20260505182203 17 264 3.2 11.3 0.00 0.00 0.00 77 1005.1
20260505181704 17 348 4.8 12.9 0.00 0.00 0.00 76 1005.2
20260505181212 7 255 0.0 0.0 0.00 0.00 0.00 84 1024.7
20260505181204 17 2 4.8 11.3 0.00 0.00 0.00 76 1005.3
20260505180704 17 349 6.4 11.3 0.00 0.00 0.00 75 1005.5
20260505180212 7 255 0.0 0.0 0.00 0.00 0.00 84 1024.7
20260505180205 17 347 4.8 14.5 0.00 0.00 0.00 74 1005.5
20260505175212 7 255 0.0 0.0 0.00 0.00 0.00 84 1024.7
20260505175203 17 353 3.2 11.3 0.00 0.00 0.00 73 1005.6
20260505174212 7 255 0.0 0.0 0.00 0.00 0.00 84 1024.7
20260505174204 17 17 6.4 14.5 0.00 0.00 0.00 73 1005.6
20260505173705 17 330 6.4 12.9 0.00 0.00 0.00 72 1005.5
20260505173212 7 255 0.0 0.0 0.00 0.00 0.00 84 1024.7
20260505173203 17 341 6.4 12.9 0.00 0.00 0.00 72 1005.6
20260505171703 17 357 4.8 9.7 0.00 0.00 0.00 71 1005.8
20260505171212 7 255 0.0 0.0 0.00 0.00 0.00 84 1024.7
20260505171204 17 358 6.4 12.9 0.00 0.00 0.00 71 1005.7
20260505170704 18 12 8.0 12.9 0.00 0.00 0.00 71 1005.7
20260505170212 7 255 0.0 0.0 0.00 0.00 0.00 84 1024.7
20260505170204 18 330 4.8 11.3 0.00 0.00 0.00 71 1005.7
20260505165703 18 354 4.8 12.9 0.00 0.00 0.00 71 1005.6
20260505165212 7 255 0.0 0.0 0.00 0.00 0.00 84 1024.7
20260505165206 18 337 4.8 12.9 0.00 0.00 0.00 71 1005.7
20260505164705 18 21 8.0 14.5 0.00 0.00 0.00 70 1005.6
20260505163706 18 359 6.4 16.1 0.00 0.00 0.00 70 1005.8
20260505163212 7 255 0.0 0.0 0.00 0.00 0.00 84 1024.7
20260505163205 18 339 3.2 9.7 0.00 0.00 0.00 70 1005.9
20260505162705 18 346 3.2 12.9 0.00 0.00 0.00 69 1005.9
20260505162212 7 255 0.0 0.0 0.00 0.00 0.00 84 1024.7
20260505162206 19 9 8.0 12.9 0.00 0.00 0.00 68 1005.9
20260505161212 7 255 0.0 0.0 0.00 0.00 0.00 84 1024.7
20260505161205 19 1 3.2 11.3 0.00 0.00 0.00 68 1005.9
20260505160706 19 355 4.8 9.7 0.00 0.00 0.00 67 1005.9
20260505160212 7 255 0.0 0.0 0.00 0.00 0.00 84 1024.7
20260505160206 19 2 8.0 11.3 0.00 0.00 0.00 65 1005.9
20260505153212 7 255 0.0 0.0 0.00 0.00 0.00 84 1024.7
20260505153206 20 347 4.8 12.9 0.00 0.00 0.00 63 1005.9
20260505152705 20 17 4.8 11.3 0.00 0.00 0.00 64 1006.0
20260505152212 7 255 0.0 0.0 0.00 0.00 0.00 84 1024.7
20260505152206 20 350 3.2 11.3 0.00 0.00 0.00 65 1006.2
20260505151705 19 331 1.6 9.7 0.00 0.00 0.00 66 1006.3
20260505151212 7 255 0.0 0.0 0.00 0.00 0.00 84 1024.7
20260505151205 19 355 8.0 11.3 0.00 0.00 0.00 66 1006.3
20260505150706 19 6 6.4 9.7 0.00 0.00 0.00 66 1006.3
20260505130212 7 255 0.0 0.0 0.00 0.00 0.00 84 1024.7
20260505130205 20 352 8.0 16.1 0.00 0.00 0.00 64 1006.8
20260505124705 20 342 6.4 16.1 0.00 0.00 0.00 64 1007.0
20260505124212 7 255 0.0 0.0 0.00 0.00 0.00 84 1024.7
20260505124205 21 328 9.7 16.1 0.00 0.00 0.00 64 1007.0
20260505123706 21 17 8.0 19.3 0.00 0.00 0.00 63 1006.9
20260505123212 7 255 0.0 0.0 0.00 0.00 0.00 84 1024.7
20260505123205 21 310 8.0 19.3 0.00 0.00 0.00 63 1006.8
20260505122705 21 347 9.7 16.1 0.00 0.00 0.00 63 1006.8
20260505122212 7 255 0.0 0.0 0.00 0.00 0.00 84 1024.7
20260505122205 21 298 8.0 19.3 0.00 0.00 0.00 61 1006.8
20260505121706 21 357 8.0 11.3 0.00 0.00 0.00 62 1006.8
20260505121212 7 255 0.0 0.0 0.00 0.00 0.00 84 1024.7
20260505121205 20 352 8.0 12.9 0.00 0.00 0.00 62 1006.9
20260505120705 20 290 6.4 12.9 0.00 0.00 0.00 63 1006.9
20260505120212 7 255 0.0 0.0 0.00 0.00 0.00 84 1024.7
20260505120205 20 293 8.0 14.5 0.00 0.00 0.00 63 1007.0
20260505115705 20 339 3.2 12.9 0.00 0.00 0.00 64 1006.9
20260505114706 20 305 9.7 19.3 0.00 0.00 0.00 65 1007.0
20260505114212 7 255 0.0 0.0 0.00 0.00 0.00 84 1024.7
20260505114205 20 307 9.7 14.5 0.00 0.00 0.00 66 1007.0
20260505113212 7 255 0.0 0.0 0.00 0.00 0.00 84 1024.7
20260505113206 20 316 9.7 19.3 0.00 0.00 0.00 67 1007.1
20260505110706 20 313 6.4 9.7 0.00 0.00 0.00 62 1007.3
20260505110211 7 255 0.0 0.0 0.00 0.00 0.00 84 1024.7
20260505110205 20 2 8.0 16.1 0.00 0.00 0.00 62 1007.3
20260505101705 18 341 8.0 12.9 0.00 0.00 0.00 70 1007.7
20260505101212 7 255 0.0 0.0 0.00 0.00 0.00 84 1024.7
20260505101205 18 350 6.4 11.3 0.00 0.00 0.00 70 1007.7
20260505100212 7 255 0.0 0.0 0.00 0.00 0.00 84 1024.7
20260505100206 18 333 9.7 14.5 0.00 0.00 0.00 70 1007.7
20260505095705 18 330 4.8 11.3 0.00 0.00 0.00 70 1007.8
20260505095211 7 255 0.0 0.0 0.00 0.00 0.00 84 1024.7
20260505095205 18 344 6.4 11.3 0.00 0.00 0.00 71 1007.9
20260505094705 18 289 9.7 19.3 0.00 0.00 0.00 70 1007.9
20260505094211 7 255 0.0 0.0 0.00 0.00 0.00 84 1024.7
20260505094205 18 266 6.4 19.3 0.00 0.00 0.00 71 1007.9
20260505093705 18 311 8.0 11.3 0.00 0.00 0.00 71 1007.9
20260505093211 7 255 0.0 0.0 0.00 0.00 0.00 84 1024.7
20260505093205 18 262 4.8 12.9 0.00 0.00 0.00 70 1008.0
20260505092705 18 262 6.4 14.5 0.00 0.00 0.00 70 1008.0
20260505092211 7 255 0.0 0.0 0.00 0.00 0.00 84 1024.7
20260505092205 18 281 8.0 12.9 0.00 0.00 0.00 69 1008.0
20260505091705 18 318 4.8 9.7 0.00 0.00 0.00 69 1007.9
20260505091212 7 255 0.0 0.0 0.00 0.00 0.00 84 1024.7
20260505091205 18 242 4.8 11.3 0.00 0.00 0.00 68 1007.9
20260505090706 18 337 4.8 9.7 0.00 0.00 0.00 68 1008.0
20260505090211 7 255 0.0 0.0 0.00 0.00 0.00 84 1024.7
20260505090205 18 270 6.4 11.3 0.00 0.00 0.00 68 1008.0
20260505085211 7 255 0.0 0.0 0.00 0.00 0.00 84 1024.7
20260505085205 17 7 1.6 4.8 0.00 0.00 0.00 70 1008.0
20260505084705 17 294 3.2 8.0 0.00 0.00 0.00 70 1008.1
20260505083705 17 257 4.8 9.7 0.00 0.00 0.00 73 1008.1
20260505083211 7 255 0.0 0.0 0.00 0.00 0.00 84 1024.7
20260505083206 16 253 4.8 8.0 0.00 0.00 0.00 74 1008.1
20260505082705 16 332 4.8 9.7 0.00 0.00 0.00 74 1008.1
20260505082211 7 255 0.0 0.0 0.00 0.00 0.00 84 1024.7
20260505082205 16 296 4.8 9.7 0.00 0.00 0.00 75 1008.1
20260505081705 16 337 6.4 8.0 0.00 0.00 0.00 75 1008.2
20260505081211 7 255 0.0 0.0 0.00 0.00 0.00 84 1024.7
20260505081205 16 341 1.6 4.8 0.00 0.00 0.00 76 1008.1
20260505080704 16 315 3.2 8.0 0.00 0.00 0.00 75 1008.1
20260505080211 7 255 0.0 0.0 0.00 0.00 0.00 84 1024.7
20260505080206 16 335 4.8 9.7 0.00 0.00 0.00 75 1008.1
20260505075705 16 333 4.8 9.7 0.00 0.00 0.00 75 1008.2
20260505075211 7 255 0.0 0.0 0.00 0.00 0.00 84 1024.7
20260505075205 16 310 6.4 11.3 0.00 0.00 0.00 75 1008.2
20260505074211 7 255 0.0 0.0 0.00 0.00 0.00 84 1024.7
20260505074205 16 267 4.8 9.7 0.00 0.00 0.00 76 1008.1
20260505073705 16 287 6.4 9.7 0.00 0.00 0.00 76 1008.2
20260505073211 7 255 0.0 0.0 0.00 0.00 0.00 84 1024.7
20260505073205 15 282 4.8 9.7 0.00 0.00 0.00 77 1008.2
20260505072705 15 269 4.8 9.7 0.00 0.00 0.00 77 1008.2
20260505072211 7 255 0.0 0.0 0.00 0.00 0.00 84 1024.7
20260505072205 15 320 6.4 11.3 0.00 0.00 0.00 77 1008.2
20260505071704 15 334 4.8 11.3 0.00 0.00 0.00 77 1008.2
20260505071211 7 255 0.0 0.0 0.00 0.00 0.00 84 1024.7
20260505071205 15 269 4.8 9.7 0.00 0.00 0.00 78 1008.3
20260505070704 15 293 4.8 11.3 0.00 0.00 0.00 79 1008.3
20260505070211 7 255 0.0 0.0 0.00 0.00 0.00 84 1024.7
20260505070205 15 341 8.0 9.7 0.00 0.00 0.00 78 1008.4
20260505065705 15 330 3.2 8.0 0.00 0.00 0.00 79 1008.5
20260505065211 7 255 0.0 0.0 0.00 0.00 0.00 84 1024.7
20260505065205 15 319 4.8 8.0 0.00 0.00 0.00 77 1008.4
20260505064705 15 236 3.2 8.0 0.00 0.00 0.00 77 1008.4
20260505063211 7 255 0.0 0.0 0.00 0.00 0.00 84 1024.7
20260505063206 15 212 1.6 4.8 0.00 0.00 0.00 78 1008.6
20260505062705 15 230 3.2 9.7 0.00 0.00 0.00 78 1008.6
20260505062211 7 255 0.0 0.0 0.00 0.00 0.00 84 1024.7
20260505062205 15 247 4.8 9.7 0.00 0.00 0.00 78 1008.6
20260505061705 15 246 4.8 11.3 0.00 0.00 0.00 77 1008.6
20260505061211 7 255 0.0 0.0 0.00 0.00 0.00 84 1024.7
20260505061205 15 271 6.4 9.7 0.00 0.00 0.00 78 1008.6
20260505060704 15 235 1.6 3.2 0.00 0.00 0.00 79 1008.6
20260505060211 7 255 0.0 0.0 0.00 0.00 0.00 84 1024.7
20260505060204 15 239 3.2 9.7 0.00 0.00 0.00 79 1008.6